Location: Marengo
(51.4813°N, 109.7825°W)
Time: 23:22:37
(UTC+00:00)

Explorer 7 - All Passes

Search period start: 28 May 2022 00:00
Search period end: 07 June 2022 00:00
Orbit: 482 x 670 km, 50.3° (Epoch: 28 May)

Date Brightness Start Highest point End Pass type
(mag) Time Alt. Az. Time Alt. Az. Time Alt. Az.
28 May - 00:08:28 10° W 00:11:42 28° SSW 00:15:00 10° SSE daylight
28 May - 17:33:41 10° SSE 17:34:48 11° SE 17:35:55 10° ESE daylight
28 May - 19:10:50 10° SW 19:14:24 38° SSE 19:17:55 10° E daylight
28 May - 20:50:45 10° W 20:54:31 74° S 20:58:15 10° E daylight
28 May - 22:31:03 10° W 22:34:44 57° SSW 22:38:26 10° ESE daylight
29 May - 00:11:45 10° W 00:14:35 20° SW 00:17:28 10° SSE daylight
29 May - 17:35:09 10° S 17:37:36 16° SE 17:40:01 10° ESE daylight
29 May - 19:13:39 10° SW 19:17:22 48° SSE 19:21:00 10° E daylight
29 May - 20:53:46 10° W 20:57:33 76° S 21:01:18 10° E daylight
29 May - 22:34:07 10° W 22:37:43 46° SSW 22:41:20 10° SE daylight
30 May - 00:15:17 10° WSW 00:17:25 15° SW 00:19:34 10° S daylight
30 May - 17:37:21 10° SSW 17:40:26 22° SSE 17:43:27 10° E daylight
30 May - 19:16:33 10° WSW 19:20:20 59° SSE 19:24:03 10° E daylight
30 May - 20:56:48 10° W 21:00:34 73° S 21:04:18 10° ESE daylight
30 May - 22:37:12 10° W 22:40:39 36° SSW 22:44:07 10° SE daylight
31 May - 17:39:50 10° SSW 17:43:18 30° SSE 17:46:39 10° E daylight
31 May - 19:19:30 10° WSW 19:23:20 68° S 19:27:04 10° E daylight
31 May - 20:59:49 10° W 21:03:34 66° S 21:07:16 10° ESE daylight
31 May - 22:40:20 10° W 22:43:32 27° SSW 22:46:44 10° SSE daylight
01 Jun - 16:05:03 10° SSE 16:06:34 12° SE 16:08:02 10° ESE daylight
01 Jun - 17:42:30 10° SW 17:46:12 39° SSE 17:49:46 10° E daylight
01 Jun - 19:22:29 10° W 19:26:20 74° S 19:30:04 10° E daylight
01 Jun - 21:02:49 10° W 21:06:33 56° SSW 21:10:12 10° ESE daylight
01 Jun - 22:43:35 10° W 22:46:22 20° SW 22:49:09 10° SSE daylight
02 Jun - 16:06:40 10° S 16:09:20 17° SE 16:11:54 10° E daylight
02 Jun - 17:45:17 10° SW 17:49:07 50° SSE 17:52:48 10° E daylight
02 Jun - 19:25:28 10° W 19:29:19 76° S 19:33:04 10° E daylight
02 Jun - 21:05:51 10° W 21:09:29 45° SSW 21:13:03 10° SE daylight
02 Jun - 22:47:07 10° WSW 22:49:09 14° SW 22:51:11 10° S daylight
03 Jun - 16:08:53 10° SSW 16:12:07 23° SSE 16:15:15 10° E daylight
03 Jun - 17:48:09 10° WSW 17:52:04 60° SSE 17:55:49 10° E daylight
03 Jun - 19:28:27 10° W 19:32:18 73° S 19:36:02 10° ESE daylight
03 Jun - 21:08:53 10° W 21:12:22 35° SSW 21:15:48 10° SE daylight
04 Jun - 16:11:21 10° SW 16:14:58 31° SSE 16:18:25 10° E daylight
04 Jun - 17:51:05 10° WSW 17:55:00 69° S 17:58:48 10° E daylight
04 Jun - 19:31:26 10° W 19:35:15 66° S 19:38:59 10° ESE daylight
04 Jun - 21:11:59 10° W 21:15:12 26° SSW 21:18:23 10° SSE daylight
05 Jun - 14:36:18 10° SSE 14:38:09 13° SE 14:39:57 10° ESE daylight
05 Jun - 16:13:59 10° SW 16:17:50 40° SSE 16:21:29 10° E daylight
05 Jun - 17:54:01 10° W 17:57:58 75° S 18:01:46 10° E daylight
05 Jun - 19:34:24 10° W 19:38:11 56° SSW 19:41:52 10° ESE daylight
05 Jun - 21:15:13 10° W 21:18:00 20° SW 21:20:44 10° SSE daylight
06 Jun - 14:38:00 10° S 14:40:52 18° SE 14:43:38 10° E daylight
06 Jun - 16:16:44 10° WSW 16:20:42 51° SSE 16:24:28 10° E daylight
06 Jun - 17:56:58 10° W 18:00:55 76° S 18:04:43 10° E daylight
06 Jun - 19:37:23 10° W 19:41:05 45° SSW 19:44:40 10° SE daylight
06 Jun - 21:18:43 10° WSW 21:20:43 14° SW 21:22:42 10° S daylight
